Regional Weather Roundup
Issued by NWS

Home | Current Version | Previous Version | Graphics & Text | Print | Product List | Glossary On
Versions: 1 2 3 4 5 6 7 8 9 10 11 12 13 14 15 16 17 18 19 20 21 22 23 24 25 26 27 28 29 30 31 32 33 34 35 36 37 38 39 40 41 42 43 44 45 46 47 48 49 50
000
ASUS44 KMEG 241010
RWRTN
TENNESSEE HOURLY STATE WEATHER ROUNDUP
NATIONAL WEATHER SERVICE MEMPHIS TN
500 AM CDT THU MAY 24 2018

TNZ002-004-019-021-049-052-054-088>092-241100-
WEST TENNESSEE

CITY           SKY/WX    TMP DP  RH WIND       PRES   REMARKS
MEMPHIS INTL   MOCLDY    72  71  97 W3        30.08R
NWS MEMPHIS      N/A     70 N/A N/A MISG        N/A
JACKSON        FAIR      67  66  97 CALM      30.08S FOG
DYERSBURG      FAIR      70  66  87 CALM      30.09R
COVINGTON      CLOUDY    70  70 100 CALM      30.08R
BOLIVAR        FOG       66  66 100 CALM      30.08R VSB 1/4
PARIS          PTCLDY    66  64  94 CALM      30.09S
HUNTINGDON     PTCLDY    66  66 100 CALM      30.08S
LEXINGTON      PTCLDY    66  64  94 CALM      30.08S
SELMER         PTCLDY    66  64  94 CALM      30.08R
SAVANNAH       CLOUDY    66  64  94 CALM      30.08R
$$

TNZ008-025-027-028-033-062-065-066-241100-
NORTH MIDDLE TENNESSEE

CITY           SKY/WX    TMP DP  RH WIND       PRES   REMARKS
NASHVILLE      FAIR      67  64  90 CALM      30.10R
DICKSON        SUNNY     64  63  94 CALM      30.10S FOG
PORTLAND       CLEAR     64  63  94 CALM      30.11S
CLARKSVILLE    FAIR      67  62  84 E3        30.10S
SMYRNA         FAIR      66  64  93 CALM      30.11R
MURFREESBORO   MOSUNNY   66  64  94 CALM      30.08F
COOKEVILLE     CLEAR     61  59  94 CALM      30.11R FOG
LIVINGSTON     SUNNY     66  63  88 NE7       30.12R
CROSSVILLE     FAIR      63  60  90 CALM      30.15R
ROCKWOOD       SUNNY     64  61  88 CALM      30.12S
$$

TNZ061-075-076-078-094-096-097-241100-
SOUTH MIDDLE TENNESSEE

CITY           SKY/WX    TMP DP  RH WIND       PRES   REMARKS
LEWISBURG      MOSUNNY   61  61 100 CALM      30.09S
FAYETTEVILLE   CLEAR     68  64  88 N6        30.08S
TULLAHOMA      CLEAR     63  61  94 CALM      30.10R
WINCHESTER     CLEAR     64  63  94 CALM      30.09R
MCMINNVILLE    PTCLDY    63  63 100 N3        30.11R FOG
COLUMBIA       CLEAR     64  64 100 CALM      30.08S
SHELBYVILLE    CLEAR     61  61 100 CALM      30.09S FOG
$$

TNZ017-018-042-046-047-241100-
NORTHEAST TENNESSEE

CITY           SKY/WX    TMP DP  RH WIND       PRES   REMARKS
TRI CITIES     FAIR      61  61 100 CALM      30.14S
ELIZABETHTON   FAIR      63  61  94 CALM      30.15R
GREENEVILLE    SUNNY     66  61  82 CALM      30.13S
$$

TNZ012-013-036-069-073-074-241100-
CENTRAL EAST TENNESSEE

CITY           SKY/WX    TMP DP  RH WIND       PRES   REMARKS
KNOXVILLE      FAIR      68  64  87 N7        30.09R
OAK RIDGE      FAIR      67  65  93 CALM      30.12R
DOWNTOWN KNOXV CLEAR     63  63 100 CALM      30.11R FOG
GATLINBURG     PTCLDY    64  63  94 CALM      30.11R
MORRISTOWN     PTCLDY    66  63  88 NE6       30.12S
JACKSBORO      PTCLDY    61  61 100 CALM      30.17R FOG
$$

TNZ083-085-099-241100-
SOUTHEAST TENNESSEE

CITY           SKY/WX    TMP DP  RH WIND       PRES   REMARKS
CHATTANOOGA    MOCLDY    69  65  86 CALM      30.08R
DAYTON         PTSUNNY   64  64 100 CALM      30.08R
$$

SKY/WX REPORTED AS FAIR MEANS FEW OR NO CLOUDS BELOW
12 THOUSAND FEET.




USA.gov is the U.S. government's official web portal to all federal, state and local government web resources and services.